Tracking 25195 objects as of 20-Jan-2022
HD Live streaming from Space Station
objects crossing your sky now

STARLINK-3068

Track STARLINK-3068 now!
10-day predictions
STARLINK-3068 is classified as:


NORAD ID: 49154
Int'l Code: 2021-082AA
Perigee: 364.9 km
Apogee: 370.0 km
Inclination: 70.0 °
Period: 91.7 minutes
Semi major axis: 6738 km
RCS: Unknown
Launch date: September 14, 2021
Source: United States (US)
Launch site: AIR FORCE WESTERN TEST RANGE (AFWTR)
aabbcc
Your satellite tracking list
Your tracking list is empty




NASA's NSSDC Master Catalog

Two Line Element Set (TLE):
1 49154U 21082AA  22020.25001157 -.00119326  00000-0 -10219-2 0  9992
2 49154  69.9995 126.6963 0003778 291.2816 330.5381 15.69512502 21281
Source of the keplerian elements: AFSPC